Location: Calvera
(42.3882°N, 0.6137°E)
Time: 13:48:29
(UTC+00:00)

SKYMED 2 - Pass Details

Date: 28 October 2020
Orbit: 621 x 623 km, 97.9° (Epoch: 25 November)

Event Time Altitude Azimuth Distance (km) Brightness Sun altitude
Rises 05:46:37 0° 188° (S) 2,890 7.0 -8.0°
Reaches altitude 10° 05:48:57 10° 197° (SSW) 1,988 6.1 -7.5°
Maximum altitude 05:52:53 34° 263° (W) 1,035 4.2 -6.8°
Drops below altitude 10° 05:56:52 10° 329° (NNW) 2,002 5.8 -6.1°
Sets 05:59:14 0° 338° (NNW) 2,913 6.7 -5.7°
